Weather History for Parkersburg, WV

Change the Weather History Date:

Tuesday, January 7, 2014

  Actual Average Record
Temperature  
Mean Temperature 2 °F 32 °F  
Max Temperature 10 °F 40 °F 69 °F (2008)
Min Temperature -6 °F 24 °F -6 °F (2014)
Degree Days  
Heating Degree Days 63 33  
Month to date heating degree days 295 231  
Cooling Degree Days 0 0  
Month to date cooling degree days 0 0  
Year to date cooling degree days 0 0  
Moisture  
Dew Point -10 °F    
Average Humidity 65    
Maximum Humidity 75    
Minimum Humidity 55    
Precipitation  
Precipitation T in 0.10 in 0.63 in (2009)
Month to date precipitation 0.64 0.67  
Year to date precipitation 0.64 0.67  
Sea Level Pressure  
Sea Level Pressure 30.45 in    
Wind  
Wind Speed 8 mph (WSW)    
Max Wind Speed 20 mph    
Max Gust Speed 30 mph    
Visibility 8 miles    
Events Snow    
T = Trace of Precipitation, MM = Missing Value Source: NWS Daily Summary

Daily Weather History Graph

Daily Weather History Graph

Search for Another Location

Airport:

Trip Planner

Search our weather history database for the weather conditions in past years. The results will help you decide how hot, cold, wet, or windy it might be!

Date:

Astronomy

Jan. 07, 2014 Rise Set
Actual Time 7:45 AM EST 5:18 PM EST
Civil Twilight 7:16 AM EST 5:48 PM EST
Nautical Twilight 6:42 AM EST 6:21 PM EST
Astronomical Twilight 6:10 AM EST 6:54 PM EST
Moon 11:36 AM EST (1/7) No Moon Set
Length of Visible Light 10h 32m
Length of Day
9h 32m
Waxing Crescent, 45% of the Moon is Illuminated
Jan 7
Waxing Crescent
Jan 7
First Quarter
Jan 15
Full
Jan 24
Last Quarter
Jan 30
New

Hourly Weather History & Observations

Time (EST) Temp. Windchill Dew Point Humidity Pressure Visibility Wind Dir Wind Speed Gust Speed Precip Events Conditions
12:53 AM -4.0 °F -23.7 °F -14.1 °F 62% 30.38 in 10.0 mi WNW 13.8 mph 21.9 mph N/A   Mostly Cloudy
1:10 AM -4.0 °F -23.0 °F -14.8 °F 60% 30.32 in 10.0 mi West 12.7 mph 19.6 mph N/A   Scattered Clouds
1:53 AM -5.1 °F -24.3 °F -15.0 °F 62% 30.41 in 10.0 mi WNW 12.7 mph 17.3 mph N/A   Partly Cloudy
2:10 AM -5.8 °F -24.4 °F -14.8 °F 65% 30.35 in 10.0 mi West 11.5 mph 18.4 mph N/A   Mostly Cloudy
2:53 AM -5.1 °F -23.5 °F -11.9 °F 72% 30.43 in 1.5 mi West 11.5 mph - 0.00 in Snow Light Snow
3:14 AM -5.8 °F -19.9 °F -11.2 °F 77% 30.37 in 1.2 mi Variable 6.9 mph 18.4 mph 0.00 in Snow Light Snow
3:23 AM -5.8 °F -26.0 °F -13.0 °F 71% 30.38 in 3.0 mi WNW 13.8 mph 19.6 mph 0.00 in Snow Light Snow
3:34 AM -5.8 °F -25.2 °F -16.6 °F 60% 30.38 in 10.0 mi West 12.7 mph 20.7 mph 0.00 in   Overcast
3:53 AM -6.0 °F -23.6 °F -14.1 °F 68% 30.44 in 4.0 mi West 10.4 mph - 0.00 in Snow Light Snow
4:07 AM -5.8 °F -18.4 °F -11.2 °F 77% 30.38 in 1.8 mi Variable 5.8 mph - 0.00 in Snow Light Snow
4:12 AM -5.8 °F -24.4 °F -11.2 °F 77% 30.38 in 3.0 mi West 11.5 mph 18.4 mph 0.00 in Snow Light Snow
4:53 AM -6.0 °F -20.1 °F -17.0 °F 59% 30.45 in 10.0 mi West 6.9 mph - 0.00 in   Scattered Clouds
5:31 AM -5.8 °F -23.4 °F -16.6 °F 60% 30.37 in 9.0 mi WSW 10.4 mph 20.7 mph N/A   Overcast
5:53 AM -6.0 °F -26.3 °F -16.1 °F 62% 30.45 in 10.0 mi West 13.8 mph 19.6 mph N/A   Overcast
6:53 AM -6.0 °F -18.6 °F -15.0 °F 65% 30.48 in 10.0 mi West 5.8 mph 20.7 mph N/A   Overcast
7:53 AM -5.1 °F -21.5 °F -15.0 °F 62% 30.50 in 10.0 mi West 9.2 mph 16.1 mph N/A   Mostly Cloudy
8:53 AM -4.0 °F -21.2 °F -13.0 °F 65% 30.53 in 10.0 mi WSW 10.4 mph 16.1 mph N/A   Scattered Clouds
9:53 AM -2.9 °F -16.5 °F -11.9 °F 65% 30.54 in 9.0 mi Variable 6.9 mph 20.7 mph N/A   Scattered Clouds
10:53 AM -0.9 °F -19.1 °F -11.9 °F 60% 30.56 in 10.0 mi WSW 12.7 mph 26.5 mph N/A   Scattered Clouds
11:53 AM 1.9 °F -10.6 °F -9.0 °F 60% 30.53 in 10.0 mi Variable 6.9 mph 18.4 mph N/A   Scattered Clouds
12:49 PM 3.2 °F -7.8 °F -7.6 °F 61% 30.42 in 9.0 mi WSW 5.8 mph - N/A   Mostly Cloudy
12:53 PM 3.0 °F -10.5 °F -7.1 °F 63% 30.49 in 8.0 mi WSW 8.1 mph - N/A   Mostly Cloudy
1:53 PM 5.0 °F -10.8 °F -5.1 °F 63% 30.48 in 10.0 mi SSW 11.5 mph 18.4 mph N/A   Overcast
2:02 PM 5.0 °F -10.8 °F -5.8 °F 61% 30.41 in 9.0 mi SW 11.5 mph 17.3 mph N/A   Mostly Cloudy
2:53 PM 6.1 °F -6.8 °F -7.1 °F 55% 30.48 in 10.0 mi WSW 8.1 mph 16.1 mph N/A   Mostly Cloudy
3:53 PM 7.0 °F -5.7 °F -6.0 °F 55% 30.49 in 10.0 mi SW 8.1 mph 16.1 mph N/A   Partly Cloudy
4:53 PM 7.0 °F -7.5 °F -5.1 °F 58% 30.47 in 10.0 mi SW 10.4 mph - N/A   Clear
5:53 PM 7.0 °F -3.3 °F -5.1 °F 58% 30.49 in 10.0 mi SW 5.8 mph - N/A   Clear
6:53 PM 7.0 °F -1.7 °F -2.9 °F 64% 30.50 in 10.0 mi SSW 4.6 mph - N/A   Mostly Cloudy
7:53 PM 7.0 °F -1.7 °F -2.9 °F 64% 30.50 in 10.0 mi SSW 4.6 mph - N/A   Overcast
8:53 PM 8.1 °F -0.5 °F -2.0 °F 64% 30.51 in 10.0 mi SSW 4.6 mph - N/A   Overcast
9:53 PM 9.0 °F -0.9 °F -2.0 °F 61% 30.51 in 10.0 mi Variable 5.8 mph - N/A   Overcast
10:53 PM 10.0 °F 3.6 °F -2.0 °F 58% 30.51 in 10.0 mi SSW 3.5 mph - N/A   Overcast
11:53 PM 10.0 °F 3.6 °F -0.0 °F 64% 30.50 in 10.0 mi Variable 3.5 mph - N/A   Overcast